[[{"header":{"parameterUnit":"m.s-1","parameterCategory":2,"la1":30.2991,"la2":30.254,"lo1":-89.0895,"lo2":-89.0444,"dy":0.0017,"dx":0.0017,"nx":28,"ny":28,"refTime":"2024-12-01T09:00:00:Z","depth":"0","parameterNumber":2,"parameterNumberName":"U-component_of_CURRENTS"},"data":[0,0,0,0,0,0,0,0,0,0,0,0,0,0,0,0,0,0,0,0,0,0,0,0,0,0,0,0,0,0,0,0,0,0,0,0,0,0,0,0,0,0,0,0,0,0,0,0,0,0,0,0,0,0,0,0,0,0,0.1849,0.185,0,0.1892,0.1892,0.1892,0.19,0.1899,0.1899,0.1899,0.1893,0.1893,0.1893,0,0,0,0,0,0,0,0,0,0,0,0,0,0.176,0.1761,0.1849,0.185,0.1851,0.1892,0.1892,0.1892,0.19,0.1899,0.1899,0.1899,0.1893,0.1893,0.1893,0,0,0,0,0,0,0,0,0,0,0,0,0,0.1798,0.1762,0.1849,0.1861,0.1863,0.1892,0.1892,0.1893,0.19,0.1899,0.1899,0.1899,0.1893,0.1893,0.1893,0.1897,0,0,0.1892,0.1892,0,0,0,0,0,0,0,0,0.1796,0.1801,0.1858,0.186,0.1862,0.1892,0.1858,0.1892,0.19,0.1883,0.1899,0.1899,0.189,0.189,0.1896,0.1897,0.1896,0.1892,0.1892,0.1892,0.1892,0,0,0,0,0,0,0,0.1793,0.1799,0.1864,0.1859,0.1862,0.1859,0.1864,0.1865,0.1884,0.1885,0.1886,0.1894,0.189,0.1896,0.1895,0.1896,0.1892,0.1892,0.1892,0.1892,0.1927,0.1927,0,0,0,0,0,0,0.1794,0.1797,0.1862,0.1865,0.183,0.1861,0.1867,0.1881,0.1885,0.1887,0.1894,0.1894,0.1896,0.1896,0.1895,0.1926,0.1892,0.1892,0.1892,0.1926,0.1927,0.1928,0,0,0,0,0,0,0.1792,0.1799,0.1861,0.1833,0.1841,0.1863,0.1879,0.1882,0.1891,0.1894,0.1894,0.1901,0.1896,0.1895,0.1907,0.1925,0.1892,0.1892,0.1924,0.1926,0.1927,0.1971,0,0,0,0,0,0,0.1789,0.1798,0.1806,0.1834,0.1843,0.1884,0.1879,0.1883,0.1897,0.1898,0.1899,0.1899,0.1896,0.1907,0.1907,0.1924,0.1892,0.1923,0.1925,0.1927,0.1968,0.1973,0.1978,0,0,0,0,0,0.1786,0.1799,0.1807,0.1815,0.1854,0.1885,0.189,0.1902,0.1898,0.1907,0.1911,0.1899,0.1918,0.1908,0.1907,0.1925,0.1922,0.1925,0.1927,0.1966,0.1972,0.1978,0,0,0,0,0,0,0.176,0.1802,0.1811,0.1835,0.1861,0.1887,0.1898,0.1905,0.1915,0.1914,0.191,0.191,0.1929,0.192,0.1909,0.194,0.1918,0.1921,0.1948,0.1954,0.1959,0.1969,0.1892,0,0,0,0,0,0.176,0.1783,0.1819,0.1838,0.1853,0.1874,0.1887,0.1899,0.1914,0.1918,0.1921,0.1925,0.1937,0.194,0.1947,0.196,0.1971,0.1971,0.1976,0.1981,0.1988,0.2016,0.2024,0.1935,0.1935,0.1935,0,0,0.1752,0.1781,0.1792,0.1834,0.1854,0.1882,0.1881,0.1906,0.1928,0.1915,0.1938,0.1942,0.1945,0.1967,0.1974,0.1961,0.2016,0.1983,0.1987,0.1993,0.2019,0.2027,0.2035,0.1936,0.1936,0.1936,0,0,0.1755,0.1779,0.1801,0.1828,0.1867,0.1885,0.1894,0.1925,0.1937,0.1962,0.1963,0.198,0.1988,0.2003,0.2009,0.2044,0.2043,0.2042,0.2073,0.2099,0.2107,0.2113,0.2156,0.2166,0.2042,0.2042,0.2042,0,0.1742,0.1783,0.181,0.1842,0.1867,0.1888,0.1917,0.1937,0.1966,0.1985,0.1973,0.2011,0.2009,0.2048,0.2062,0.2056,0.2075,0.2049,0.2106,0.2113,0.2119,0.2161,0.2172,0.2045,0.2044,0.2044,0.2044,0,0.1768,0.18,0.1816,0.1867,0.1894,0.1924,0.1961,0.1985,0.1998,0.2021,0.206,0.2064,0.2089,0.2091,0.2086,0.2133,0.2135,0.2111,0.2091,0.2131,0.2173,0.2183,0.2048,0.2047,0.2047,0.2046,0,0,0.1738,0.1818,0.1823,0.1853,0.1913,0.1936,0.1981,0.2032,0.2064,0.2087,0.2131,0.2151,0.2157,0.2165,0.2163,0.2182,0.2245,0.2167,0.2167,0.2211,0.2322,0.2384,0.2402,0.2229,0.2231,0.2232,0.234,0,0.1749,0.1809,0.185,0.1901,0.1935,0.1978,0.2019,0.2066,0.2101,0.2148,0.2169,0.2204,0.2185,0.2198,0.2219,0.2239,0.2271,0.2219,0.2276,0.2278,0.233,0.2415,0.2374,0.2472,0.235,0.2352,0.2353,0,0.1761,0.1803,0.1856,0.1929,0.1947,0.1976,0.2049,0.2089,0.2163,0.2196,0.2241,0.226,0.231,0.2274,0.2341,0.231,0.2325,0.2333,0.2337,0.2387,0.236,0.2409,0.2495,0.2474,0.2369,0.2368,0.2366,0,0.1728,0.1806,0.1847,0.1873,0.1956,0.1982,0.2021,0.2096,0.215,0.2225,0.2275,0.2327,0.2366,0.2387,0.2429,0.2383,0.2507,0.2441,0.2518,0.2522,0.2496,0.2496,0.2568,0.2493,0.2492,0.2492,0.2492,0,0.1729,0.1757,0.1831,0.1853,0.19,0.196,0.2019,0.207,0.2165,0.2235,0.229,0.2363,0.2395,0.2471,0.2474,0.2564,0.2552,0.2557,0.2565,0.2513,0.2513,0.2498,0.2467,0.2496,0.2495,0.2494,0.2494,0,0.1685,0.1739,0.1785,0.1863,0.1885,0.1912,0.2014,0.2063,0.2156,0.2251,0.2282,0.2415,0.2526,0.2582,0.2646,0.2645,0.2658,0.2727,0.2684,0.2686,0.2713,0.2685,0.2653,0.2573,0.2817,0.282,0.2822,0,0.1669,0.1692,0.1769,0.1796,0.1827,0.1884,0.1929,0.2038,0.2108,0.2284,0.2335,0.249,0.2597,0.2763,0.2809,0.288,0.277,0.2867,0.2768,0.2753,0.2726,0.2579,0.25,0.275,0.2751,0.2752,0.2753,0,0.1633,0.166,0.1696,0.1751,0.1795,0.1853,0.193,0.1986,0.2123,0.2221,0.2373,0.2475,0.2694,0.2788,0.2923,0.2939,0.2772,0.2892,0.2871,0.27,0.2546,0.246,0.2652,0.2762,0.2761,0.276,0.276,0.276,0.1591,0.1605,0.1656,0.1702,0.1753,0.1801,0.1824,0.1928,0.2026,0.2165,0.2321,0.247,0.2708,0.2909,0.2918,0.2972,0.2863,0.29,0.2876,0.2736,0.2632,0.2876,0.2997,0.2997,0.2998,0.2998,0.2998,0,0.1536,0.1565,0.1607,0.1654,0.168,0.1734,0.1813,0.1837,0.1909,0.2098,0.2229,0.2505,0.2679,0.2852,0.3033,0.2972,0.2766,0.2905,0.2667,0.2592,0.2827,0.2801,0.2892,0.2892,0.2892,0.2892,0.2892,0.2892,0.1507,0.1521,0.1549,0.1568,0.16,0.1609,0.1632,0.1683,0.1805,0.1982,0.2162,0.2339,0.2745,0.3082,0.3133,0.3024,0.2754,0.2667,0.2605,0.2783,0.2778,0.2773,0.2742,0.2819,0.2818,0.2258,0.2254,0.2251]},{"header":{"parameterUnit":"m.s-1","parameterCategory":2,"la1":30.2991,"la2":30.254,"lo1":-89.0895,"lo2":-89.0444,"dy":0.0017,"dx":0.0017,"nx":28,"ny":28,"refTime":"2024-12-01T09:00:00:Z","depth":"0","parameterNumber":3,"parameterNumberName":"V-component_of_CURRENTS"},"data":[0,0,0,0,0,0,0,0,0,0,0,0,0,0,0,0,0,0,0,0,0,0,0,0,0,0,0,0,0,0,0,0,0,0,0,0,0,0,0,0,0,0,0,0,0,0,0,0,0,0,0,0,0,0,0,0,0,0,-0.0453,-0.0454,0,-0.0514,-0.0515,-0.0515,-0.0556,-0.0556,-0.0556,-0.0557,-0.0636,-0.0638,-0.064,0,0,0,0,0,0,0,0,0,0,0,0,0,-0.0409,-0.041,-0.0453,-0.0454,-0.0454,-0.0514,-0.0515,-0.0516,-0.0556,-0.0556,-0.0557,-0.0557,-0.0636,-0.0638,-0.064,0,0,0,0,0,0,0,0,0,0,0,0,0,-0.0446,-0.041,-0.0453,-0.0481,-0.0484,-0.0514,-0.0515,-0.0516,-0.0556,-0.0556,-0.0557,-0.0557,-0.0635,-0.0638,-0.0641,-0.0652,0,0,-0.0649,-0.0651,0,0,0,0,0,0,0,0,-0.0443,-0.0447,-0.0476,-0.0479,-0.0483,-0.0527,-0.0529,-0.0562,-0.0556,-0.0529,-0.0557,-0.0557,-0.0601,-0.0607,-0.0618,-0.0655,-0.0659,-0.065,-0.0651,-0.0653,-0.0653,0,0,0,0,0,0,0,-0.0441,-0.0445,-0.0478,-0.0477,-0.0481,-0.0504,-0.0509,-0.0535,-0.0563,-0.0532,-0.0535,-0.054,-0.0603,-0.0615,-0.062,-0.066,-0.065,-0.0652,-0.0654,-0.0655,-0.0731,-0.0731,0,0,0,0,0,0,-0.043,-0.0442,-0.0476,-0.048,-0.0463,-0.0504,-0.051,-0.0513,-0.0563,-0.057,-0.054,-0.0542,-0.061,-0.0617,-0.0623,-0.066,-0.0653,-0.0655,-0.0657,-0.073,-0.0731,-0.0731,0,0,0,0,0,0,-0.0429,-0.0432,-0.0473,-0.0462,-0.0469,-0.0504,-0.0508,-0.0514,-0.0526,-0.0569,-0.0577,-0.0545,-0.0611,-0.0619,-0.0651,-0.0663,-0.0657,-0.0659,-0.073,-0.0731,-0.0731,-0.0721,0,0,0,0,0,0,-0.0427,-0.0431,-0.043,-0.0461,-0.0469,-0.0489,-0.0507,-0.0515,-0.0529,-0.0532,-0.0576,-0.0584,-0.0611,-0.0647,-0.0654,-0.0667,-0.0661,-0.073,-0.073,-0.0731,-0.0721,-0.0721,-0.0722,0,0,0,0,0,-0.0425,-0.042,-0.0429,-0.0433,-0.0466,-0.0489,-0.0495,-0.0522,-0.0529,-0.0534,-0.0567,-0.0583,-0.0655,-0.0649,-0.0658,-0.0672,-0.073,-0.073,-0.0731,-0.0721,-0.0721,-0.0722,0,0,0,0,0,0,-0.0399,-0.0425,-0.0435,-0.0438,-0.0461,-0.0495,-0.0501,-0.0517,-0.0546,-0.0549,-0.0587,-0.0598,-0.0632,-0.0649,-0.0641,-0.0694,-0.0695,-0.0697,-0.0684,-0.0685,-0.0685,-0.069,-0.0664,0,0,0,0,0,-0.0392,-0.0396,-0.0425,-0.0427,-0.0436,-0.0466,-0.0478,-0.0496,-0.0526,-0.0539,-0.057,-0.0604,-0.0641,-0.0659,-0.0691,-0.0717,-0.0742,-0.0731,-0.0731,-0.0731,-0.074,-0.0804,-0.0811,-0.0733,-0.0733,-0.0733,0,0,-0.0382,-0.0397,-0.0399,-0.0422,-0.0441,-0.0455,-0.0475,-0.049,-0.0508,-0.0543,-0.0573,-0.0606,-0.0648,-0.0684,-0.07,-0.0699,-0.0758,-0.0732,-0.0731,-0.0741,-0.0806,-0.0813,-0.082,-0.0734,-0.0734,-0.0734,0,0,-0.0367,-0.0377,-0.0378,-0.0397,-0.0423,-0.0442,-0.0444,-0.0477,-0.0498,-0.0529,-0.0564,-0.0605,-0.0648,-0.0691,-0.0716,-0.0734,-0.0758,-0.0735,-0.0742,-0.0804,-0.0811,-0.0818,-0.0826,-0.0834,-0.0735,-0.0735,-0.0735,0,-0.0353,-0.036,-0.0382,-0.0393,-0.0403,-0.0433,-0.0439,-0.0467,-0.0509,-0.0529,-0.0536,-0.0624,-0.0658,-0.0718,-0.0728,-0.0737,-0.0757,-0.0738,-0.0805,-0.0813,-0.082,-0.0828,-0.0836,-0.0734,-0.0735,-0.0735,-0.0735,0,-0.0346,-0.0354,-0.0355,-0.0378,-0.0392,-0.04,-0.0437,-0.0458,-0.0481,-0.0517,-0.0574,-0.0629,-0.0682,-0.07,-0.0723,-0.0789,-0.0779,-0.0799,-0.0806,-0.0828,-0.0833,-0.0842,-0.0734,-0.0734,-0.0734,-0.0734,0,0,-0.0305,-0.0341,-0.0341,-0.0345,-0.0383,-0.0387,-0.042,-0.0456,-0.0473,-0.0533,-0.0563,-0.065,-0.0682,-0.0713,-0.075,-0.0809,-0.0868,-0.0824,-0.0827,-0.0832,-0.0969,-0.0903,-0.0907,-0.0904,-0.0907,-0.0909,-0.094,0,-0.029,-0.0295,-0.0324,-0.0327,-0.0327,-0.0368,-0.0391,-0.0432,-0.0472,-0.0509,-0.0589,-0.0629,-0.0686,-0.0701,-0.0779,-0.084,-0.0898,-0.0855,-0.0948,-0.0949,-0.0891,-0.0918,-0.0889,-0.0911,-0.0949,-0.0951,-0.0952,0,-0.027,-0.0274,-0.027,-0.0291,-0.0294,-0.0305,-0.0332,-0.036,-0.0434,-0.0466,-0.0541,-0.0593,-0.0683,-0.072,-0.087,-0.0838,-0.091,-0.0964,-0.0967,-0.0921,-0.0903,-0.0903,-0.0927,-0.1105,-0.0967,-0.0966,-0.0964,0,-0.0213,-0.0234,-0.0221,-0.023,-0.0262,-0.0267,-0.0285,-0.0345,-0.0346,-0.043,-0.043,-0.0569,-0.0589,-0.0739,-0.0847,-0.0866,-0.0989,-0.1026,-0.1037,-0.1031,-0.1033,-0.1023,-0.1245,-0.115,-0.115,-0.115,-0.115,0,-0.0179,-0.0168,-0.019,-0.0183,-0.0161,-0.0209,-0.0198,-0.0242,-0.0275,-0.0257,-0.0394,-0.0385,-0.0598,-0.0683,-0.0827,-0.0937,-0.0978,-0.1043,-0.1049,-0.1021,-0.101,-0.1186,-0.1295,-0.1151,-0.1151,-0.115,-0.115,0,-0.0116,-0.0137,-0.0115,-0.0133,-0.0132,-0.0111,-0.0107,-0.0094,-0.0148,-0.0121,-0.0131,-0.0236,-0.0341,-0.0535,-0.0733,-0.086,-0.1094,-0.1034,-0.0954,-0.095,-0.1128,-0.1236,-0.1455,-0.1533,-0.1065,-0.1064,-0.1063,0,-0.0085,-0.0068,-0.0054,-0.0024,-0.0026,-0.0003,0.0022,-0.0019,0.0019,-0.0005,0.004,-0.0054,-0.0076,-0.0332,-0.0589,-0.0821,-0.1028,-0.0951,-0.1004,-0.1141,-0.1268,-0.1357,-0.1415,-0.0991,-0.099,-0.0989,-0.0988,0,-0.0018,-0.001,0.0013,0.0079,0.0118,0.0165,0.0206,0.0263,0.0241,0.0275,0.0331,0.0312,0.008,-0.0123,-0.0446,-0.0635,-0.1077,-0.0928,-0.113,-0.1279,-0.1338,-0.1411,-0.0932,-0.0976,-0.0978,-0.0978,-0.0979,-0.0979,0.0044,0.0085,0.0124,0.0192,0.0247,0.0337,0.0402,0.047,0.0561,0.0636,0.0594,0.0609,0.026,-0.0162,-0.0438,-0.0934,-0.0977,-0.11,-0.1228,-0.1311,-0.1382,-0.0837,-0.085,-0.0851,-0.0851,-0.0851,-0.0852,0,0.0129,0.0171,0.0236,0.0319,0.0409,0.0412,0.0533,0.0615,0.0761,0.0838,0.0894,0.0743,0.0321,-0.016,-0.0806,-0.1169,-0.1355,-0.1405,-0.1579,-0.1632,-0.1199,-0.119,-0.1205,-0.1205,-0.1205,-0.1205,-0.1205,-0.1205,0.0176,0.0261,0.0294,0.0452,0.0517,0.0649,0.0732,0.0857,0.0949,0.1077,0.1099,0.1067,0.0702,-0.0522,-0.1361,-0.1571,-0.1886,-0.193,-0.2094,-0.185,-0.1833,-0.1817,-0.1837,-0.1988,-0.1989,-0.2473,-0.2479,-0.2482]}],[{"header":{"parameterUnit":"m.s-1","parameterCategory":2,"la1":30.2991,"la2":30.254,"lo1":-89.0895,"lo2":-89.0444,"dy":0.0017,"dx":0.0017,"nx":28,"ny":28,"refTime":"2024-12-01T09:00:00:Z","depth":"2","parameterNumber":2,"parameterNumberName":"U-component_of_CURRENTS"},"data":[0,0,0,0,0,0,0,0,0,0,0,0,0,0,0,0,0,0,0,0,0,0,0,0,0,0,0,0,0,0,0,0,0,0,0,0,0,0,0,0,0,0,0,0,0,0,0,0,0,0,0,0,0,0,0,0,0,0,0.18,0.1801,0,0.1839,0.1839,0.184,0.1848,0.1848,0.1848,0.1848,0.1846,0.1846,0.1846,0,0,0,0,0,0,0,0,0,0,0,0,0,0.1714,0.1716,0.18,0.1801,0.1802,0.1839,0.1839,0.184,0.1848,0.1848,0.1848,0.1848,0.1846,0.1846,0.1846,0,0,0,0,0,0,0,0,0,0,0,0,0,0.175,0.1716,0.18,0.1812,0.1814,0.1839,0.1839,0.184,0.1848,0.1848,0.1848,0.1848,0.1846,0.1846,0.1846,0.1848,0,0,0.1846,0.1846,0,0,0,0,0,0,0,0,0.1748,0.1753,0.181,0.1811,0.1813,0.1841,0.1809,0.1841,0.1848,0.1833,0.1848,0.1848,0.1842,0.1842,0.1847,0.1848,0.1848,0.1846,0.1846,0.1846,0.1846,0,0,0,0,0,0,0,0.1746,0.1751,0.1813,0.1811,0.1813,0.1809,0.1814,0.1815,0.1835,0.1834,0.1835,0.1843,0.1842,0.1847,0.1847,0.1848,0.1846,0.1846,0.1846,0.1846,0.1885,0.1886,0,0,0,0,0,0,0.1747,0.1749,0.1812,0.1815,0.1782,0.1811,0.1816,0.183,0.1836,0.1838,0.1843,0.1844,0.1847,0.1847,0.1847,0.1885,0.1846,0.1846,0.1846,0.1884,0.1885,0.1887,0,0,0,0,0,0,0.1745,0.1752,0.1811,0.1784,0.1792,0.1813,0.1828,0.1831,0.1843,0.1844,0.1844,0.1853,0.1847,0.1847,0.1863,0.1883,0.1846,0.1846,0.1883,0.1885,0.1886,0.1938,0,0,0,0,0,0,0.1743,0.1752,0.1761,0.1785,0.1793,0.1835,0.1829,0.1832,0.1848,0.1849,0.1852,0.1851,0.1847,0.1863,0.1863,0.1883,0.1846,0.1882,0.1884,0.1885,0.1935,0.1941,0.1947,0,0,0,0,0,0.1739,0.1754,0.1762,0.1769,0.1806,0.1836,0.1841,0.1853,0.1849,0.1861,0.1866,0.1852,0.1875,0.1864,0.1864,0.1884,0.1881,0.1883,0.1885,0.1933,0.194,0.1947,0,0,0,0,0,0,0.1718,0.1757,0.1766,0.1791,0.1816,0.1839,0.1851,0.1857,0.187,0.187,0.1865,0.1865,0.1889,0.1878,0.1866,0.1901,0.1876,0.1878,0.1912,0.1919,0.1924,0.1937,0.1846,0,0,0,0,0,0.172,0.1744,0.1777,0.1797,0.1811,0.1831,0.1844,0.1855,0.1871,0.1876,0.1879,0.1884,0.1897,0.1901,0.1908,0.1925,0.1934,0.1937,0.1943,0.1948,0.1959,0.1988,0.1997,0.1894,0.1894,0.1894,0,0,0.1715,0.1742,0.1754,0.1795,0.1813,0.1841,0.1838,0.1864,0.1888,0.1873,0.19,0.1904,0.1907,0.1932,0.194,0.1926,0.1986,0.1951,0.1955,0.1964,0.1991,0.2001,0.201,0.1896,0.1896,0.1895,0,0,0.1723,0.1746,0.1769,0.1795,0.1832,0.1849,0.1859,0.1888,0.1903,0.193,0.193,0.1951,0.1959,0.1975,0.1982,0.2022,0.2018,0.2019,0.2057,0.2085,0.2093,0.2101,0.2144,0.2155,0.2019,0.2019,0.202,0,0.1714,0.1754,0.1779,0.181,0.1833,0.1855,0.1883,0.1905,0.1935,0.1957,0.1944,0.1987,0.1984,0.2029,0.2044,0.2036,0.2054,0.203,0.2093,0.2101,0.2108,0.2149,0.2161,0.2022,0.2022,0.2022,0.2021,0,0.1742,0.1774,0.1791,0.184,0.1866,0.1896,0.1932,0.196,0.1976,0.1999,0.2045,0.2051,0.2077,0.208,0.2074,0.2127,0.2126,0.2099,0.2076,0.2122,0.2162,0.2174,0.2026,0.2025,0.2024,0.2024,0,0,0.1717,0.1795,0.18,0.1829,0.1886,0.1908,0.1959,0.2012,0.2049,0.2076,0.2124,0.2151,0.2157,0.2165,0.2163,0.2187,0.2254,0.2167,0.2167,0.2212,0.2334,0.2355,0.2369,0.2236,0.2238,0.224,0.2348,0,0.173,0.1789,0.1828,0.1879,0.1912,0.1956,0.2001,0.2051,0.2091,0.2142,0.2168,0.2206,0.2189,0.2203,0.2229,0.2247,0.2284,0.2229,0.2281,0.2283,0.2298,0.2383,0.2193,0.2275,0.2359,0.2361,0.2362,0,0.1742,0.1784,0.1836,0.191,0.1927,0.1957,0.2035,0.2079,0.2161,0.2197,0.2249,0.2267,0.2323,0.2286,0.2361,0.2327,0.2342,0.2351,0.2354,0.2363,0.2325,0.224,0.2292,0.2381,0.2379,0.2378,0.2377,0,0.1709,0.1787,0.1828,0.1852,0.1936,0.1966,0.2008,0.209,0.2146,0.2229,0.2279,0.2339,0.2379,0.2405,0.2446,0.2401,0.2529,0.2463,0.2504,0.2505,0.235,0.2336,0.2521,0.252,0.252,0.252,0.252,0,0.1709,0.1738,0.1813,0.1834,0.1884,0.1944,0.2007,0.2067,0.2165,0.2237,0.2296,0.2371,0.2409,0.2486,0.2491,0.2564,0.2573,0.2543,0.2545,0.2366,0.2353,0.2435,0.2424,0.2524,0.2523,0.2522,0.2522,0,0.1665,0.1719,0.1764,0.1845,0.187,0.1898,0.2002,0.2055,0.2153,0.225,0.2281,0.2417,0.2522,0.2581,0.2649,0.2637,0.2685,0.2704,0.2512,0.249,0.2625,0.2614,0.2745,0.2747,0.2749,0.275,0.2751,0,0.1649,0.1671,0.175,0.1776,0.1809,0.1868,0.1916,0.203,0.21,0.2279,0.2329,0.2477,0.2569,0.2718,0.2739,0.2791,0.2784,0.2632,0.2509,0.2665,0.2652,0.264,0.2628,0.2323,0.232,0.2318,0.2317,0,0.1614,0.1639,0.1676,0.1732,0.1777,0.1834,0.1913,0.1966,0.2108,0.2202,0.2345,0.2431,0.2611,0.2605,0.2708,0.2694,0.2605,0.2595,0.2812,0.2308,0.2279,0.2263,0.2262,0.2299,0.23,0.2302,0.2303,0.2303,0.1573,0.1586,0.1637,0.1682,0.1734,0.1778,0.1801,0.1898,0.199,0.2107,0.2257,0.233,0.2427,0.2492,0.2466,0.2451,0.2602,0.2458,0.2459,0.2462,0.2407,0.2383,0.2413,0.2416,0.2418,0.242,0.2421,0,0.1517,0.1545,0.1588,0.1633,0.1656,0.1713,0.1788,0.1796,0.1855,0.199,0.2089,0.2011,0.2066,0.2156,0.2123,0.2163,0.2068,0.2063,0.1906,0.193,0.1949,0.1859,0.1725,0.1722,0.1719,0.1716,0,0,0.1487,0.1499,0.1525,0.1541,0.1574,0.1578,0.1598,0.1621,0.1694,0.1721,0.1762,0.1953,0.2092,0.1858,0.1875,0.1788,0.1819,0.1721,0.2293,0.2131,0.2146,0.2213,0.211,0,0,0,0,0]},{"header":{"parameterUnit":"m.s-1","parameterCategory":2,"la1":30.2991,"la2":30.254,"lo1":-89.0895,"lo2":-89.0444,"dy":0.0017,"dx":0.0017,"nx":28,"ny":28,"refTime":"2024-12-01T09:00:00:Z","depth":"2","parameterNumber":3,"parameterNumberName":"V-component_of_CURRENTS"},"data":[0,0,0,0,0,0,0,0,0,0,0,0,0,0,0,0,0,0,0,0,0,0,0,0,0,0,0,0,0,0,0,0,0,0,0,0,0,0,0,0,0,0,0,0,0,0,0,0,0,0,0,0,0,0,0,0,0,0,-0.0259,-0.0259,0,-0.0317,-0.0318,-0.0319,-0.0364,-0.0364,-0.0365,-0.0365,-0.0451,-0.0453,-0.0455,0,0,0,0,0,0,0,0,0,0,0,0,0,-0.0218,-0.0219,-0.0258,-0.0259,-0.026,-0.0317,-0.0318,-0.0319,-0.0364,-0.0364,-0.0365,-0.0365,-0.045,-0.0453,-0.0455,0,0,0,0,0,0,0,0,0,0,0,0,0,-0.0253,-0.0219,-0.0258,-0.0289,-0.0292,-0.0317,-0.0318,-0.0319,-0.0364,-0.0364,-0.0365,-0.0366,-0.045,-0.0452,-0.0455,-0.0461,0,0,-0.0464,-0.0465,0,0,0,0,0,0,0,0,-0.0251,-0.0254,-0.0284,-0.0287,-0.0291,-0.0334,-0.0335,-0.0368,-0.0364,-0.0337,-0.0365,-0.0366,-0.0413,-0.0419,-0.0429,-0.0466,-0.0469,-0.0464,-0.0466,-0.0467,-0.0468,0,0,0,0,0,0,0,-0.0248,-0.0252,-0.0282,-0.0284,-0.0289,-0.0311,-0.0316,-0.0342,-0.0372,-0.034,-0.0343,-0.0348,-0.0416,-0.0426,-0.0432,-0.047,-0.0464,-0.0467,-0.0469,-0.047,-0.0545,-0.0546,0,0,0,0,0,0,-0.0237,-0.0249,-0.028,-0.0284,-0.0271,-0.0311,-0.0317,-0.032,-0.0371,-0.038,-0.0348,-0.035,-0.0421,-0.0428,-0.0435,-0.0474,-0.0467,-0.047,-0.0472,-0.0545,-0.0545,-0.0546,0,0,0,0,0,0,-0.0236,-0.024,-0.0278,-0.0268,-0.0274,-0.0311,-0.0314,-0.032,-0.0337,-0.0377,-0.0386,-0.0358,-0.0422,-0.0431,-0.0466,-0.0477,-0.0471,-0.0474,-0.0545,-0.0545,-0.0545,-0.0534,0,0,0,0,0,0,-0.0235,-0.0239,-0.0239,-0.0267,-0.0275,-0.0293,-0.0313,-0.0321,-0.0339,-0.0343,-0.0389,-0.0397,-0.0423,-0.0461,-0.0469,-0.048,-0.0476,-0.0544,-0.0545,-0.0545,-0.0534,-0.0534,-0.0534,0,0,0,0,0,-0.0233,-0.0227,-0.0238,-0.0242,-0.0273,-0.0293,-0.0299,-0.0328,-0.0339,-0.0345,-0.0379,-0.0396,-0.047,-0.0464,-0.0473,-0.0485,-0.0544,-0.0545,-0.0545,-0.0534,-0.0534,-0.0534,0,0,0,0,0,0,-0.021,-0.0232,-0.0245,-0.0247,-0.0269,-0.0301,-0.0307,-0.0326,-0.0357,-0.0363,-0.0401,-0.0412,-0.0447,-0.0464,-0.0457,-0.0508,-0.0509,-0.0511,-0.0497,-0.0497,-0.0497,-0.0506,-0.0479,0,0,0,0,0,-0.0203,-0.0207,-0.0234,-0.0237,-0.0245,-0.0276,-0.0288,-0.0308,-0.0337,-0.0352,-0.0385,-0.042,-0.0455,-0.0474,-0.0504,-0.0531,-0.0555,-0.0544,-0.0543,-0.0543,-0.0556,-0.0621,-0.0628,-0.0548,-0.0548,-0.0548,0,0,-0.0196,-0.0209,-0.0212,-0.0233,-0.0251,-0.0261,-0.0285,-0.0301,-0.0317,-0.0356,-0.0387,-0.0421,-0.0461,-0.0495,-0.0512,-0.0513,-0.057,-0.0544,-0.0544,-0.0557,-0.0622,-0.063,-0.0638,-0.0548,-0.0548,-0.0548,0,0,-0.0182,-0.0192,-0.0192,-0.0207,-0.0232,-0.025,-0.0253,-0.0287,-0.0309,-0.0342,-0.0376,-0.0421,-0.0463,-0.0503,-0.0526,-0.0543,-0.0568,-0.0545,-0.0555,-0.0617,-0.0625,-0.0632,-0.0634,-0.0642,-0.0545,-0.0545,-0.0545,0,-0.0172,-0.0174,-0.0196,-0.02,-0.0205,-0.0242,-0.0241,-0.0271,-0.0315,-0.0333,-0.0349,-0.0433,-0.0472,-0.0522,-0.0538,-0.0545,-0.0566,-0.0551,-0.0619,-0.0627,-0.0634,-0.0635,-0.0644,-0.0545,-0.0545,-0.0545,-0.0545,0,-0.0156,-0.0162,-0.0161,-0.0176,-0.0186,-0.0191,-0.0226,-0.0249,-0.028,-0.0313,-0.0369,-0.0431,-0.0479,-0.0502,-0.0534,-0.06,-0.0589,-0.0611,-0.062,-0.0642,-0.064,-0.0649,-0.0544,-0.0544,-0.0544,-0.0545,0,0,-0.0122,-0.0144,-0.0145,-0.0142,-0.017,-0.0171,-0.02,-0.0232,-0.0247,-0.0312,-0.0333,-0.0431,-0.0467,-0.0498,-0.0541,-0.0612,-0.068,-0.064,-0.0643,-0.0642,-0.078,-0.0709,-0.0712,-0.0721,-0.0723,-0.0725,-0.0742,0,-0.0103,-0.0095,-0.0116,-0.0108,-0.0101,-0.0138,-0.0162,-0.0199,-0.0236,-0.0267,-0.035,-0.0392,-0.0462,-0.0486,-0.057,-0.0654,-0.071,-0.067,-0.0759,-0.0761,-0.0698,-0.0724,-0.069,-0.0699,-0.0751,-0.0753,-0.0754,0,-0.0078,-0.0074,-0.0059,-0.0068,-0.0069,-0.0076,-0.0097,-0.0122,-0.0185,-0.0219,-0.0283,-0.0335,-0.0439,-0.049,-0.0659,-0.0631,-0.071,-0.0778,-0.078,-0.0733,-0.071,-0.0694,-0.0714,-0.077,-0.0768,-0.0767,-0.0766,0,-0.0027,-0.0032,-0.0012,-0.0013,-0.0034,-0.004,-0.0057,-0.0109,-0.0109,-0.0181,-0.0182,-0.0313,-0.035,-0.0505,-0.0641,-0.0663,-0.0803,-0.0839,-0.084,-0.0833,-0.0831,-0.082,-0.0961,-0.0961,-0.096,-0.096,-0.096,0,0.001,0.0026,0.0013,0.0026,0.0045,0.001,0.0022,-0.0023,-0.0048,-0.0027,-0.0149,-0.0142,-0.0366,-0.0455,-0.0611,-0.0733,-0.0776,-0.0847,-0.0849,-0.0818,-0.0806,-0.0899,-0.0892,-0.0961,-0.0961,-0.0961,-0.0961,0,0.0063,0.0051,0.008,0.007,0.007,0.0087,0.0095,0.0111,0.0058,0.0091,0.0076,-0.0017,-0.0136,-0.0323,-0.0536,-0.0653,-0.0804,-0.0831,-0.0743,-0.0735,-0.0797,-0.0789,-0.085,-0.0848,-0.0847,-0.0845,-0.0844,0,0.0091,0.0109,0.0129,0.0158,0.0156,0.0179,0.0198,0.0164,0.0208,0.0188,0.0231,0.0134,0.0111,-0.0147,-0.0399,-0.0625,-0.0702,-0.0727,-0.0782,-0.0798,-0.0794,-0.0788,-0.0783,-0.0759,-0.0757,-0.0756,-0.0755,0,0.0149,0.0154,0.0182,0.0241,0.0277,0.0328,0.0366,0.0421,0.0406,0.0435,0.0484,0.0461,0.0238,0.003,-0.0273,-0.0439,-0.0699,-0.07,-0.0773,-0.0777,-0.071,-0.0706,-0.0705,-0.0742,-0.0743,-0.0744,-0.0745,-0.0745,0.0196,0.0234,0.0273,0.0334,0.0387,0.0476,0.0537,0.0605,0.0688,0.0742,0.0707,0.0676,0.0413,0.0053,-0.0225,-0.0538,-0.0551,-0.0678,-0.0685,-0.0692,-0.0664,-0.0597,-0.0598,-0.0599,-0.0599,-0.06,-0.06,0,0.0264,0.0305,0.0365,0.0444,0.053,0.0535,0.0654,0.0726,0.0853,0.0892,0.0926,0.0716,0.0476,0.0158,-0.0275,-0.0526,-0.0597,-0.0615,-0.0659,-0.0668,-0.0677,-0.0652,-0.0581,-0.0582,-0.0583,-0.0583,0,0,0.0304,0.0382,0.0416,0.056,0.062,0.0743,0.0823,0.0922,0.0983,0.1051,0.1032,0.0954,0.058,0.0278,-0.0081,-0.0331,-0.0448,-0.0385,-0.0371,-0.039,-0.0396,-0.0681,-0.0646,0,0,0,0,0]}],[{"header":{"parameterUnit":"m.s-1","parameterCategory":2,"la1":30.2991,"la2":30.254,"lo1":-89.0895,"lo2":-89.0444,"dy":0.0017,"dx":0.0017,"nx":28,"ny":28,"refTime":"2024-12-01T09:00:00:Z","depth":"4","parameterNumber":2,"parameterNumberName":"U-component_of_CURRENTS"},"data":[0,0,0,0,0,0,0,0,0,0,0,0,0,0,0,0,0,0,0,0,0,0,0,0,0,0,0,0,0,0,0,0,0,0,0,0,0,0,0,0,0,0,0,0,0,0,0,0,0,0,0,0,0,0,0,0,0,0,0.11,0.11,0,0.1156,0.1157,0.1157,0.1211,0.1212,0.1212,0.1213,0.1277,0.1278,0.1279,0,0,0,0,0,0,0,0,0,0,0,0,0,0.1038,0.1039,0.11,0.11,0.1101,0.1156,0.1157,0.1158,0.1211,0.1212,0.1213,0.1213,0.1277,0.1278,0.1279,0,0,0,0,0,0,0,0,0,0,0,0,0,0.1077,0.1039,0.11,0.1134,0.1138,0.1156,0.1157,0.1158,0.1211,0.1212,0.1213,0.1214,0.1276,0.1278,0.1279,0.127,0,0,0.1284,0.1285,0,0,0,0,0,0,0,0,0.1074,0.1079,0.1128,0.1132,0.1136,0.1177,0.1158,0.1195,0.121,0.1183,0.1213,0.1214,0.1244,0.1248,0.1256,0.1273,0.1275,0.1285,0.1286,0.1286,0.1287,0,0,0,0,0,0,0,0.1072,0.1077,0.1122,0.1129,0.1134,0.1147,0.1153,0.1166,0.1207,0.1186,0.119,0.1195,0.1246,0.1255,0.1258,0.1276,0.1285,0.1286,0.1287,0.1288,0.1378,0.1379,0,0,0,0,0,0,0.1063,0.1074,0.112,0.1124,0.1107,0.1147,0.1154,0.1163,0.1207,0.1215,0.1194,0.1198,0.1251,0.1256,0.1261,0.1323,0.1286,0.1288,0.1289,0.1376,0.1378,0.138,0,0,0,0,0,0,0.1062,0.1067,0.1118,0.11,0.1107,0.1147,0.1156,0.1164,0.1201,0.1214,0.1222,0.1227,0.1252,0.1259,0.1294,0.1323,0.1288,0.129,0.1375,0.1377,0.1379,0.1401,0,0,0,0,0,0,0.106,0.1066,0.1082,0.1099,0.1108,0.1143,0.1156,0.1164,0.1201,0.1206,0.1243,0.1249,0.1254,0.1292,0.1296,0.1325,0.1291,0.1373,0.1376,0.1378,0.1398,0.1403,0.1408,0,0,0,0,0,0.1057,0.1067,0.1082,0.1088,0.1124,0.1143,0.1149,0.118,0.1202,0.1218,0.1246,0.1249,0.1312,0.1293,0.1298,0.1328,0.1372,0.1375,0.1378,0.1396,0.1402,0.1408,0,0,0,0,0,0,0.1045,0.1074,0.1091,0.1109,0.1133,0.1153,0.1173,0.1194,0.1229,0.1246,0.1259,0.1266,0.1311,0.1316,0.1296,0.1364,0.1346,0.135,0.1358,0.1364,0.1369,0.1394,0.1293,0,0,0,0,0,0.1049,0.107,0.1093,0.1111,0.1125,0.1156,0.1173,0.1196,0.1222,0.1241,0.1264,0.1295,0.1323,0.1341,0.1363,0.1393,0.1407,0.1419,0.1424,0.1428,0.1453,0.1492,0.1502,0.139,0.139,0.139,0,0,0.1048,0.1069,0.108,0.1111,0.1135,0.1155,0.117,0.1204,0.1235,0.1241,0.1293,0.1312,0.1335,0.1373,0.1394,0.1384,0.1464,0.1432,0.1435,0.1459,0.1496,0.1507,0.1516,0.1392,0.1392,0.1392,0,0,0.1047,0.1078,0.1092,0.1117,0.1158,0.1173,0.1188,0.1224,0.126,0.1306,0.132,0.1351,0.14,0.1411,0.1426,0.1469,0.1488,0.1491,0.1535,0.1571,0.1581,0.1589,0.1605,0.1615,0.1493,0.1493,0.1493,0,0.1047,0.1071,0.1099,0.1123,0.1149,0.1183,0.1207,0.1241,0.1287,0.1322,0.1333,0.1403,0.1417,0.1454,0.1486,0.1479,0.1511,0.1506,0.1577,0.1586,0.1594,0.1609,0.162,0.1494,0.1494,0.1494,0.1494,0,0.1054,0.1084,0.1096,0.1138,0.1168,0.1196,0.1242,0.1279,0.1327,0.1369,0.1434,0.1447,0.1498,0.15,0.1519,0.1585,0.159,0.1575,0.1559,0.1607,0.1619,0.163,0.1496,0.1496,0.1495,0.1495,0,0,0.1019,0.1087,0.1094,0.1125,0.1185,0.1207,0.1262,0.1321,0.1369,0.1423,0.1489,0.1534,0.1568,0.1588,0.1593,0.1627,0.1704,0.1652,0.1653,0.1663,0.1796,0.1708,0.1711,0.1719,0.1722,0.1724,0.1774,0,0.1018,0.106,0.1101,0.1149,0.1174,0.1232,0.1278,0.1345,0.141,0.1481,0.1523,0.1584,0.1594,0.1623,0.1668,0.1699,0.1739,0.1692,0.1755,0.1757,0.1668,0.1723,0.1732,0.1782,0.1784,0.1786,0.1787,0,0.1008,0.1041,0.109,0.1164,0.1183,0.1224,0.1311,0.1362,0.1466,0.1521,0.1596,0.1647,0.1716,0.1711,0.1797,0.1781,0.182,0.1826,0.1827,0.1752,0.169,0.173,0.1807,0.1805,0.1804,0.1803,0.1801,0,0.0965,0.1033,0.1076,0.1103,0.1188,0.1235,0.1287,0.1385,0.1445,0.1558,0.1613,0.17,0.1759,0.1813,0.1868,0.1858,0.1953,0.1918,0.1861,0.1854,0.1906,0.1896,0.1994,0.1994,0.1994,0.1994,0.1993,0,0.0942,0.0976,0.1066,0.1091,0.115,0.1227,0.1309,0.1365,0.1474,0.155,0.1645,0.17,0.1805,0.1875,0.1902,0.192,0.1982,0.1892,0.1873,0.1911,0.1901,0.1912,0.1902,0.1995,0.1995,0.1995,0.1994,0,0.0893,0.0949,0.1002,0.11,0.1134,0.1185,0.1312,0.1364,0.1467,0.1566,0.1608,0.1744,0.1834,0.1899,0.1985,0.1951,0.1961,0.1954,0.1996,0.1975,0.1828,0.1819,0.1887,0.1885,0.1883,0.1881,0.188,0,0.0872,0.0895,0.0998,0.1037,0.1091,0.118,0.1232,0.1346,0.1408,0.157,0.1606,0.1749,0.183,0.1861,0.1941,0.1967,0.1956,0.1938,0.1889,0.1849,0.1824,0.1818,0.1811,0.1876,0.1876,0.1875,0.1875,0,0.083,0.0879,0.0926,0.1002,0.1068,0.1133,0.1228,0.1263,0.1399,0.1494,0.158,0.1645,0.1755,0.1821,0.1869,0.1878,0.1927,0.1916,0.1919,0.1874,0.1836,0.1812,0.1808,0.1868,0.1869,0.1869,0.187,0,0.0806,0.0829,0.0901,0.0964,0.1036,0.1085,0.1137,0.1219,0.1291,0.146,0.1487,0.1623,0.1744,0.1777,0.1807,0.1826,0.1805,0.1735,0.1747,0.1756,0.1693,0.1626,0.1596,0,0,0,0,0,0.0776,0.0807,0.0858,0.0926,0.0991,0.1038,0.1134,0.1189,0.1312,0.1338,0.1415,0.1502,0.1586,0.1654,0.1652,0.1764,0.1812,0.1754,0.1738,0.1828,0.1836,0.1776,0,0,0,0,0,0,0.0765,0.0814,0.084,0.0884,0.0921,0.0988,0.1046,0.1123,0.115,0.1274,0.1328,0.1417,0.152,0.1578,0.1625,0.1647,0.1609,0.1836,0.1833,0.1823,0.1831,0.1838,0.1779,0,0,0,0,0]},{"header":{"parameterUnit":"m.s-1","parameterCategory":2,"la1":30.2991,"la2":30.254,"lo1":-89.0895,"lo2":-89.0444,"dy":0.0017,"dx":0.0017,"nx":28,"ny":28,"refTime":"2024-12-01T09:00:00:Z","depth":"4","parameterNumber":3,"parameterNumberName":"V-component_of_CURRENTS"},"data":[0,0,0,0,0,0,0,0,0,0,0,0,0,0,0,0,0,0,0,0,0,0,0,0,0,0,0,0,0,0,0,0,0,0,0,0,0,0,0,0,0,0,0,0,0,0,0,0,0,0,0,0,0,0,0,0,0,0,0.0115,0.0115,0,0.007,0.007,0.0069,0.0034,0.0033,0.0033,0.0033,-0.0046,-0.0048,-0.005,0,0,0,0,0,0,0,0,0,0,0,0,0,0.0131,0.0131,0.0115,0.0115,0.0114,0.007,0.007,0.0069,0.0034,0.0033,0.0033,0.0033,-0.0046,-0.0048,-0.005,0,0,0,0,0,0,0,0,0,0,0,0,0,0.0109,0.0131,0.0115,0.0091,0.0089,0.007,0.007,0.0069,0.0034,0.0033,0.0033,0.0032,-0.0045,-0.0048,-0.005,-0.0057,0,0,-0.0059,-0.006,0,0,0,0,0,0,0,0,0.011,0.0108,0.0096,0.0093,0.009,0.0057,0.0046,0.0025,0.0034,0.0055,0.0033,0.0032,-0.0014,-0.002,-0.0027,-0.0061,-0.0064,-0.0059,-0.006,-0.0062,-0.0062,0,0,0,0,0,0,0,0.0112,0.011,0.0097,0.0095,0.0092,0.0069,0.0066,0.0042,0.0023,0.0053,0.005,0.0045,-0.0016,-0.0024,-0.0029,-0.0065,-0.0059,-0.0061,-0.0063,-0.0064,-0.0117,-0.0117,0,0,0,0,0,0,0.0121,0.0112,0.0099,0.0096,0.0099,0.007,0.0066,0.0068,0.0024,0.0017,0.0046,0.0044,-0.0019,-0.0026,-0.0032,-0.0021,-0.0062,-0.0064,-0.0066,-0.0118,-0.0117,-0.0117,0,0,0,0,0,0,0.0121,0.012,0.0101,0.0102,0.0098,0.007,0.0073,0.0068,0.0058,0.0019,0.0011,0.0042,-0.002,-0.0028,-0.0046,-0.0025,-0.0065,-0.0068,-0.0118,-0.0117,-0.0117,-0.0012,0,0,0,0,0,0,0.0122,0.0121,0.0125,0.0103,0.0099,0.01,0.0073,0.0067,0.0056,0.0053,0.0013,0.0005,-0.0021,-0.0041,-0.0048,-0.0029,-0.007,-0.0118,-0.0118,-0.0117,-0.0016,-0.0008,-0.0002,0,0,0,0,0,0.0123,0.014,0.0126,0.0124,0.0106,0.0101,0.0097,0.0074,0.0056,0.0062,0.0033,0.0006,-0.0044,-0.0043,-0.0051,-0.0032,-0.0118,-0.0118,-0.0117,-0.0019,-0.001,-0.0002,0,0,0,0,0,0,0.0151,0.0137,0.0122,0.0133,0.012,0.0095,0.0098,0.0078,0.0059,0.0052,0.0012,0.0004,-0.0007,-0.0039,-0.0036,-0.0051,-0.0088,-0.0089,-0.001,-0.0002,0.0005,0.0035,-0.0072,0,0,0,0,0,0.0159,0.0167,0.0146,0.0155,0.0151,0.0122,0.0116,0.0099,0.0079,0.007,0.0041,0.0008,-0.0011,-0.0021,-0.0049,-0.0052,-0.0082,-0.0049,-0.0042,-0.0036,-0.0019,-0.0032,-0.0023,-0.0116,-0.0116,-0.0116,0,0,0.0174,0.0165,0.017,0.0161,0.0147,0.0158,0.0118,0.0114,0.0124,0.0064,0.0067,0.003,-0.0009,-0.001,-0.0018,-0.0033,-0.0033,-0.0035,-0.0029,-0.0016,-0.003,-0.0021,-0.0013,-0.0115,-0.0115,-0.0115,0,0,0.0212,0.0198,0.0219,0.0213,0.0197,0.0182,0.0183,0.0159,0.0151,0.0143,0.0106,0.0093,0.0048,0.0044,0.0031,0.0059,0.0002,0.0031,0.01,0.0088,0.0096,0.0103,0.0054,0.0056,0.004,0.004,0.004,0,0.0229,0.025,0.0224,0.0241,0.0243,0.0199,0.0222,0.0213,0.0186,0.0185,0.0155,0.0117,0.0084,0.0104,0.011,0.0081,0.0042,0.0078,0.0101,0.0107,0.0113,0.0061,0.0062,0.0045,0.0045,0.0044,0.0044,0,0.0278,0.0297,0.031,0.0318,0.0316,0.0327,0.031,0.0309,0.0283,0.0265,0.0264,0.0227,0.0201,0.0192,0.016,0.0184,0.0131,0.0111,0.0089,0.0129,0.007,0.0069,0.0053,0.0051,0.0049,0.0048,0,0,0.0314,0.0341,0.0346,0.036,0.0356,0.0358,0.0384,0.0389,0.0409,0.0375,0.039,0.037,0.0331,0.0314,0.0276,0.0278,0.0275,0.0213,0.021,0.0181,0.0213,0.0148,0.0139,0.0254,0.0255,0.0256,0.015,0,0.036,0.041,0.0412,0.0458,0.0477,0.0458,0.0488,0.0483,0.0472,0.0473,0.0438,0.0428,0.0382,0.0367,0.0363,0.0297,0.0279,0.0303,0.0164,0.016,0.0112,0.014,0.0259,0.0149,0.0148,0.0148,0.0148,0,0.0404,0.0431,0.0486,0.0523,0.0531,0.0554,0.0583,0.0602,0.0599,0.0592,0.0579,0.0522,0.051,0.0458,0.0391,0.0401,0.0313,0.0265,0.0259,0.0167,0.0094,0.0102,0.0145,0.0145,0.0146,0.0146,0.0146,0,0.0425,0.0482,0.0526,0.0536,0.0573,0.0599,0.0615,0.0633,0.065,0.0656,0.0648,0.0622,0.0577,0.0514,0.0381,0.0381,0.0288,0.0271,0.013,0.0122,0.0167,0.0161,0.0219,0.022,0.022,0.022,0.022,0,0.0462,0.0498,0.054,0.0561,0.0614,0.0627,0.0683,0.0704,0.0723,0.0733,0.0696,0.068,0.0586,0.0496,0.0402,0.0254,0.0292,0.0149,0.0104,0.0207,0.0207,0.0164,0.0159,0.0216,0.0217,0.0218,0.0218,0,0.0471,0.0504,0.0552,0.0604,0.0624,0.0653,0.0706,0.0743,0.0766,0.0774,0.0763,0.0701,0.0592,0.0479,0.035,0.0256,0.0147,0.0074,0.0171,0.013,-0.0019,-0.0018,-0.0071,-0.0074,-0.0076,-0.0078,-0.008,0,0.0481,0.0507,0.057,0.0597,0.0622,0.0673,0.0711,0.0756,0.0784,0.0778,0.0766,0.0661,0.0596,0.0378,0.0268,0.0085,0.0047,-0.0022,0.0014,-0.0003,-0.0043,-0.0037,-0.0033,-0.0084,-0.0084,-0.0085,-0.0086,0,0.0488,0.0509,0.0545,0.06,0.0643,0.0698,0.0745,0.0764,0.0799,0.0813,0.0751,0.0631,0.0488,0.0343,0.018,0.0056,0.0038,-0.0048,-0.0043,-0.001,-0.002,-0.0055,-0.0048,-0.0094,-0.0093,-0.0092,-0.0092,0,0.0484,0.0504,0.0548,0.0594,0.065,0.0696,0.0732,0.0748,0.0771,0.0761,0.073,0.0605,0.0535,0.0322,0.0189,0.005,0.0017,-0.0019,-0.0016,-0.0009,0.0044,0.0042,-0.0042,0,0,0,0,0,0.0474,0.0493,0.0537,0.0589,0.0645,0.0682,0.0741,0.0772,0.0795,0.0747,0.0742,0.0612,0.0396,0.0317,0.0164,0.0137,-0.0008,-0.0049,-0.0049,-0.0142,-0.0132,-0.0085,0,0,0,0,0,0,0.0464,0.0502,0.0527,0.0574,0.061,0.0674,0.0716,0.0737,0.0716,0.0717,0.0611,0.056,0.0362,0.048,0.0156,0.0115,0.009,-0.014,-0.0144,-0.0147,-0.0138,-0.013,-0.0079,0,0,0,0,0]}]]